Regional Weather Roundup
Issued by NWS

Home | Current Version | Previous Version | Graphics & Text | Print | Product List | Glossary On
Versions: 1 2 3 4 5 6 7 8 9 10 11 12 13 14 15 16 17 18 19 20 21 22 23 24 25 26 27 28 29 30 31 32 33 34 35 36 37 38 39 40 41 42 43 44 45 46 47 48 49 50
000
ASUS44 KMEG 180600
RWRTN
TENNESSEE HOURLY STATE WEATHER ROUNDUP
NATIONAL WEATHER SERVICE MEMPHIS TN
1200 AM CST THU DEC 18 2014

TNZ002-004-019-021-049-052-054-088>092-180700-
WEST TENNESSEE

CITY           SKY/WX    TMP DP  RH WIND       PRES   REMARKS
MEMPHIS INTL   LGT RAIN  40  33  76 N9        30.27F WCI  34
NWS MEMPHIS      N/A     38 N/A N/A MISG        N/A
JACKSON        LGT RAIN  37  33  85 NW6       30.31R WCI  32
DYERSBURG      CLOUDY    36  25  64 N5        30.32F WCI  32
UNION CITY     CLOUDY    34  30  86 N3        30.30S
PARIS          CLOUDY    32  27  80 N3        30.31R
LEXINGTON      CLOUDY    36  32  87 N5        30.26R WCI  32
SAVANNAH       CLOUDY    37  30  75 N5        30.25R WCI  34
$$

TNZ008-025-027-028-033-062-065-066-180700-
NORTH MIDDLE TENNESSEE

CITY           SKY/WX    TMP DP  RH WIND       PRES   REMARKS
NASHVILLE      CLOUDY    33  29  85 CALM      30.26F
CLARKSVILLE    CLOUDY    32  27  81 NE3       30.28S
COOKEVILLE     CLEAR     25  23  93 CALM      30.23S
CROSSVILLE     PTCLDY    30  26  85 CALM      30.20S FOG
$$

TNZ061-075-076-078-094-096-097-180700-
SOUTH MIDDLE TENNESSEE

CITY           SKY/WX    TMP DP  RH WIND       PRES   REMARKS
FAYETTEVILLE   CLEAR     32  28  86 N14G28    30.20F WCI  22
TULLAHOMA      CLEAR     32  28  86 CALM      30.23R
WINCHESTER     CLEAR     30  28  93 N3        30.22S
SHELBYVILLE    PTCLDY    30  30 100 CALM      30.25R
$$

TNZ017-018-042-046-047-180700-
NORTHEAST TENNESSEE

CITY           SKY/WX    TMP DP  RH WIND       PRES   REMARKS
TRI CITIES     CLEAR     29  27  92 CALM      30.17F
ELIZABETHTON   CLEAR     25  25 100 CALM      30.16S
$$

TNZ012-013-036-069-073-074-180700-
CENTRAL EAST TENNESSEE

CITY           SKY/WX    TMP DP  RH WIND       PRES   REMARKS
KNOXVILLE      PTCLDY    34  29  82 N5        30.21R WCI  30
OAK RIDGE      PTCLDY    32  29  88 CALM      30.22S
GATLINBURG     CLEAR     27  27 100 CALM      30.20S
$$

TNZ083-085-099-180700-
SOUTHEAST TENNESSEE

CITY           SKY/WX    TMP DP  RH WIND       PRES   REMARKS
CHATTANOOGA    MOCLDY    36  31  82 N5        30.20F WCI  32
$$

SKY/WX REPORTED AS FAIR MEANS FEW OR NO CLOUDS BELOW
12 THOUSAND FEET.




USA.gov is the U.S. government's official web portal to all federal, state and local government web resources and services.